Regional Weather Roundup
Issued by NWS Burlington, VT

Current Version | Previous Version | Graphics & Text | Print | Product List | Glossary Off
Versions: 1 2 3 4 5 6 7 8 9 10 11 12 13 14 15 16 17 18 19 20 21 22 23 24 25 26 27 28 29 30 31 32 33 34 35 36 37 38 39 40 41 42 43 44 45 46 47 48 49 50

000
ASUS41 KBTV 020310
RWRBTV
VERMONT REGIONAL WEATHER ROUNDUP
NATIONAL WEATHER SERVICE BURLINGTON VT
1100 PM EDT WED JUL 01 2015

NOTE: "FAIR" INDICATES FEW OR NO CLOUDS BELOW 12,000 FEET WITH NO
SIGNIFICANT WEATHER AND/OR OBSTRUCTIONS TO VISIBILITY.

* THESE REPORTS ARE NOT UNDER NWS QUALITY CONTROL AND/OR DO NOT
  REPORT WEATHER SUCH AS PRECIPITATION AND FOG.

VTZ001>019-020400-
_____VERMONT_____


CITY           SKY/WX    TMP DP  RH WIND       PRES   REMARKS
BURLINGTON     PTCLDY    65  55  70 W10       29.77R
MONTPELIER     MOCLDY    63  54  72 W13G21    29.81R
MORRISVILLE    MOCLDY    66  54  65 VRB6      29.77R
ST. JOHNSBURY*   N/A     64  59  83 MISG      29.73R
LYNDONVILLE*   FAIR      59  56  90 SW12      29.77R
RUTLAND*       CLOUDY    64  54  68 W9        29.81S
SPRINGFIELD    CLOUDY    63  59  87 NW3       29.80R
HIGHGATE*      MOCLDY    63  56  78 W6G17     29.74R
NEWPORT*       CLOUDY    60  55  83 SW7       29.75R
BENNINGTON     CLEAR     64  58  80 SW10      29.85R
SUTTON*          N/A     59 N/A N/A MISG        N/A

_____LAKE CHAMPLAIN_____


CITY           SKY/WX    TMP DP  RH WIND       PRES   REMARKS

$$

NYZ007-026>031-035-052-083-020400-
_____NORTHERN NEW YORK_____


CITY           SKY/WX    TMP DP  RH WIND       PRES   REMARKS
PLATTSBURGH    CLEAR     60  56  86 S3        29.75R
SARANAC LAKE   CLOUDY    58  55  90 VRB5      29.79R
MASSENA        PTCLDY    60  53  77 W18G24    29.79R
OGDENSBURG*    MOCLDY    61  55  82 NW7       29.81R
POTSDAM*       CLOUDY    61  55  82 NW13      29.81R
WATERTOWN      MOCLDY    61  58  90 SW3       29.83R
FT DRUM        MOCLDY    60  58  93 VRB3      29.82R
ALBANY         MOCLDY    66  57  72 W10       29.84R
GLENS FALLS    CLEAR     65  56  72 SW7       29.82R

$$
NHZ002-005-011-020400-
_____NEW HAMPSHIRE_____


CITY           SKY/WX    TMP DP  RH WIND       PRES   REMARKS
LEBANON        PTCLDY    64  57  78 S5        29.76R
KEENE          PTCLDY    63  57  82 SE3       29.81R
MT WASHINGTON  FOG       46  46 100 W53G60      N/A  VSB 0
PLYMOUTH       FAIR      63  63 100 CALM      29.74R
WHITEFIELD     MOCLDY    67  59  75 SW8       29.73R

$$

_____REGIONAL QUEBEC LOCATIONS_____


CITY           SKY/WX    TMP DP  RH WIND       PRES   REMARKS
MONTREAL       MOCLDY    63  55  77 W15G22    29.70R
QUEBEC CITY    CLOUDY    64  63  94 SW14      29.55S
SHERBROOKE     LGT RAIN  61  59  94 SW15G24   29.68R

_____REGIONAL ONTARIO LOCATIONS_____


CITY           SKY/WX    TMP DP  RH WIND       PRES   REMARKS
OTTAWA         MOCLDY    59  52  77 W17G24    29.81R

______KEY______
VSB  - VISIBILITY IN MILES
WCI  - WIND CHILL INDEX
HX   - HEAT INDEX
$$
NNNN


USA.gov is the U.S. government's official web portal to all federal, state and local government web resources and services.